N0YUV Weather Reports


time (UTC)temp
C
wind
direction
speed
KPH
gust
KPH
rain 1hr
cm
rain 24hr
cm
rain mn
cm
humidity
%
barometer
mb
20260505041607 11 360 0.0 0.0 0.00 0.00 0.00 61 1009.9
20260505040043 11 360 0.0 0.0 0.00 0.00 0.00 57 1010.0
20260505034546 11 360 0.0 0.0 0.00 0.00 0.00 55 1009.9
20260505033042 11 360 0.0 0.0 0.00 0.00 0.00 54 1010.3
20260505031539 12 360 0.0 0.0 0.00 0.00 0.00 52 1009.4
20260505030040 12 360 0.0 0.0 0.00 0.00 0.00 51 1009.4
20260505024544 12 360 0.0 0.0 0.00 0.00 0.00 50 1008.9
20260505023045 12 360 0.0 0.0 0.00 0.00 0.00 48 1009.0
20260505021544 12 360 0.0 0.0 0.00 0.00 0.00 48 1008.9
20260505020034 12 95 0.0 0.0 0.00 0.00 0.00 46 1008.4
20260505014540 13 95 0.0 0.0 0.00 0.00 0.00 46 1008.1
20260505013032 13 95 0.0 0.0 0.00 0.00 0.00 45 1008.3
20260505011533 13 95 0.0 0.0 0.00 0.00 0.00 45 1007.8
20260505010030 13 95 0.0 0.0 0.00 0.00 0.00 43 1007.5
20260505004530 14 95 0.0 0.0 0.00 0.00 0.00 42 1007.6
20260505003027 15 94 0.0 0.0 0.00 0.00 0.00 41 1007.5
20260505001533 16 94 0.0 0.0 0.00 0.00 0.00 40 1007.2
20260505000031 16 95 0.0 0.0 0.00 0.00 0.00 39 1007.0
20260504234523 17 95 0.0 0.0 0.00 0.00 0.00 37 1006.6
20260504233024 18 94 0.0 0.0 0.00 0.00 0.00 36 1006.2
20260504231528 18 94 0.0 0.0 0.00 0.00 0.00 37 1005.8
20260504230021 20 94 0.0 0.0 0.00 0.00 0.00 36 1005.5
20260504224526 20 94 0.0 0.0 0.00 0.00 0.00 35 1005.0
20260504223120 20 94 0.0 0.0 0.00 0.00 0.00 36 1004.8
20260504221521 21 96 0.0 0.0 0.00 0.00 0.00 34 1004.4
20260504220021 21 96 0.0 0.0 0.00 0.00 0.00 35 1004.4
20260504214518 21 96 0.0 0.0 0.00 0.00 0.00 34 1004.4
20260504213019 22 96 0.0 0.0 0.00 0.00 0.00 34 1004.2
20260504211517 22 95 0.0 0.0 0.00 0.00 0.00 33 1004.0
20260504210017 23 94 0.0 0.0 0.00 0.00 0.00 34 1003.8
20260504204517 23 94 0.0 0.0 0.00 0.00 0.00 33 1003.8
20260504203022 23 94 0.0 0.0 0.00 0.00 0.00 33 1003.7
20260504201518 23 95 0.0 0.0 0.00 0.00 0.00 32 1003.6
20260504200015 23 94 0.0 0.0 0.00 0.00 0.00 32 1003.5
20260504194528 23 94 0.0 0.0 0.00 0.00 0.00 32 1003.2
20260504193017 23 95 0.0 0.0 0.00 0.00 0.00 33 1003.2
20260504191512 23 95 0.0 0.0 0.00 0.00 0.00 34 1003.0
20260504190011 23 95 0.0 0.0 0.00 0.00 0.00 37 1002.9
20260504184513 23 94 0.0 0.0 0.00 0.00 0.00 39 1002.7
20260504183012 23 95 0.0 0.0 0.00 0.00 0.00 41 1002.6
20260504181510 23 96 0.0 0.0 0.00 0.00 0.00 43 1002.8
20260504180013 23 96 0.0 0.0 0.00 0.00 0.00 43 1002.7
20260504174507 23 96 0.0 0.0 0.00 0.00 0.00 43 1002.7
20260504173013 24 96 0.0 0.0 0.00 0.00 0.00 40 1002.7
20260504171503 24 96 0.0 0.0 0.00 0.00 0.00 41 1002.5
20260504120113 9 360 0.0 0.0 0.00 0.00 0.00 70 1003.0
20260504081529 11 360 0.0 0.0 0.00 0.00 0.00 65 1003.9
20260504050136 14 360 0.0 0.0 0.00 0.00 0.00 53 1006.7
20260504044558 14 360 0.0 0.0 0.00 0.00 0.00 53 1006.7
20260504043100 14 360 0.0 0.0 0.00 0.00 0.00 53 1006.8